Location: Invercargill
(46.4000°S, 168.3500°E)
Time: 06:27:00
(UTC+12:00)

Vanguard 1 Rocket - Visible Passes

Search period start: 17 July 2019 00:00
Search period end: 27 July 2019 00:00
Orbit: 651 x 4225 km, 34.3° (Epoch: 15 July)

Date Brightness Start Highest point End Pass type
(mag) Time Alt. Az. Time Alt. Az. Time Alt. Az.
17 Jul 9.8 04:50:33 14° NNE 04:50:33 14° NNE 04:52:31 10° NNE visible
23 Jul 10.1 20:29:41 10° N 20:31:46 12° NNE 20:31:46 12° NNE visible
24 Jul 10.3 21:40:55 10° NNW 21:42:02 12° NNW 21:42:02 12° NNW visible
25 Jul 9.9 20:29:21 10° NNW 20:34:58 17° NNE 20:34:58 17° NNE visible
26 Jul 10.0 19:18:34 10° N 19:23:53 14° NNE 19:27:56 10° NE visible
26 Jul 10.1 21:42:27 10° NW 21:45:13 17° NNW 21:45:13 17° NNW visible
